Tracking 29892 objects as of 21-Nov-2024
HD Live streaming from Space Station
objects crossing your sky now

STARLINK-2109

Track STARLINK-2109 now!
10-day predictions
STARLINK-2109 is classified as:


NORAD ID: 47388
Int'l Code: 2021-005AR
Perigee: 553.0 km
Apogee: 555.8 km
Inclination: 53.1 °
Period: 95.6 minutes
Semi major axis: 6925 km
RCS: Unknown
Launch date: January 20, 2021
Source: United States (US)
Launch site: AIR FORCE EASTERN TEST RANGE (AFETR)
Your satellite tracking list
Your tracking list is empty




NASA's NSSDC Master Catalog

Two Line Element Set (TLE):
1 47388U 21005AR  24324.49755558  .00004768  00000-0  33884-3 0  9995
2 47388  53.0559  34.8401 0002028  87.1438 272.9783 15.06396673211415
Source of the keplerian elements: AFSPC